Time,TemperatureF,DewpointF,PressureIn,WindDirection,WindDirectionDegrees,WindSpeedMPH,WindSpeedGustMPH,Humidity,HourlyPrecipIn,Conditions,Clouds,dailyrainin,SoftwareType,DateUTC
2013-05-14 00:02:00,62.0,50.0,-100.00,South,170,10.0,17.0,65,0.00,,,-99.99,,2013-05-14 05:02:00,
2013-05-14 00:12:00,61.0,50.0,-100.00,South,170,9.0,15.0,66,0.00,,,-99.99,,2013-05-14 05:12:00,
2013-05-14 00:21:00,61.0,50.0,-100.00,South,175,10.0,15.0,66,0.00,,,-99.99,,2013-05-14 05:21:00,
2013-05-14 00:32:00,61.0,50.0,-100.00,South,175,9.0,14.0,67,0.00,,,-99.99,,2013-05-14 05:32:00,
2013-05-14 00:42:00,61.0,51.0,-100.00,South,180,9.0,16.0,68,0.00,,,-99.99,,2013-05-14 05:42:00,
2013-05-14 00:52:00,61.0,51.0,-100.00,South,175,9.0,18.0,69,0.00,,,-99.99,,2013-05-14 05:52:00,
2013-05-14 01:01:00,61.0,51.0,-100.00,SSW,195,9.0,16.0,69,0.00,,,-99.99,,2013-05-14 06:01:00,
2013-05-14 01:12:00,61.0,51.0,-100.00,South,175,9.0,14.0,70,0.00,,,-99.99,,2013-05-14 06:12:00,
2013-05-14 01:22:00,61.0,51.0,-100.00,South,180,11.0,15.0,70,0.00,,,-99.99,,2013-05-14 06:22:00,
2013-05-14 01:32:00,61.0,51.0,-100.00,South,180,11.0,17.0,71,0.00,,,-99.99,,2013-05-14 06:32:00,
2013-05-14 01:42:00,61.0,52.0,-100.00,South,185,9.0,16.0,73,0.00,,,-99.99,,2013-05-14 06:42:00,
2013-05-14 01:51:00,61.0,52.0,-100.00,South,190,9.0,17.0,73,0.00,,,-99.99,,2013-05-14 06:51:00,
2013-05-14 02:02:00,61.0,52.0,-100.00,South,180,11.0,17.0,73,0.00,,,-99.99,,2013-05-14 07:02:00,
2013-05-14 02:11:00,61.0,53.0,-100.00,South,180,11.0,17.0,74,0.00,,,-99.99,,2013-05-14 07:11:00,
2013-05-14 02:21:00,61.0,53.0,-100.00,South,180,11.0,17.0,74,0.00,,,-99.99,,2013-05-14 07:21:00,
2013-05-14 02:31:00,61.0,53.0,-100.00,South,180,11.0,17.0,74,0.00,,,-99.99,,2013-05-14 07:31:00,
2013-05-14 02:42:00,61.0,53.0,-100.00,South,180,11.0,17.0,74,0.00,,,-99.99,,2013-05-14 07:42:00,
2013-05-14 02:52:00,61.0,53.0,-100.00,South,180,11.0,17.0,74,0.00,,,-99.99,,2013-05-14 07:52:00,
2013-05-14 03:11:00,61.0,55.0,-100.00,South,190,7.0,15.0,81,0.00,,,-99.99,,2013-05-14 08:11:00,
2013-05-14 03:21:00,61.0,55.0,-100.00,South,190,7.0,15.0,81,0.00,,,-99.99,,2013-05-14 08:21:00,
2013-05-14 03:32:00,60.0,56.0,-100.00,South,175,6.0,11.0,83,0.00,,,-99.99,,2013-05-14 08:32:00,
2013-05-14 03:41:00,60.0,56.0,-100.00,SSE,165,6.0,9.0,85,0.00,,,-99.99,,2013-05-14 08:41:00,
2013-05-14 03:51:00,60.0,56.0,-100.00,South,180,6.0,9.0,87,0.00,,,-99.99,,2013-05-14 08:51:00,
2013-05-14 04:02:00,60.0,56.0,-100.00,South,190,5.0,12.0,87,0.00,,,-99.99,,2013-05-14 09:02:00,
2013-05-14 04:11:00,60.0,56.0,-100.00,South,190,5.0,12.0,87,0.00,,,-99.99,,2013-05-14 09:11:00,
2013-05-14 04:21:00,59.0,57.0,-100.00,South,180,6.0,11.0,91,0.00,,,-99.99,,2013-05-14 09:21:00,
2013-05-14 04:32:00,59.0,57.0,-100.00,SSW,200,4.0,9.0,93,0.00,,,-99.99,,2013-05-14 09:32:00,
2013-05-14 04:44:00,59.0,57.0,-100.00,SSW,200,4.0,9.0,93,0.00,,,-99.99,,2013-05-14 09:44:00,
2013-05-14 04:54:00,57.0,57.0,-100.00,SSE,160,4.0,6.0,99,0.00,,,-99.99,,2013-05-14 09:54:00,
2013-05-14 05:04:00,56.0,56.0,-100.00,South,170,4.0,6.0,99,0.00,,,-99.99,,2013-05-14 10:04:00,
2013-05-14 05:14:00,57.0,57.0,-100.00,South,190,4.0,6.0,99,0.00,,,-99.99,,2013-05-14 10:14:00,
2013-05-14 05:25:00,57.0,-99.9,-100.00,South,185,5.0,8.0,-999,0.00,,,-99.99,,2013-05-14 10:25:00,
2013-05-14 05:33:00,57.0,-99.9,-100.00,South,185,5.0,8.0,-999,0.00,,,-99.99,,2013-05-14 10:33:00,
2013-05-14 05:43:00,57.0,-99.9,-100.00,South,185,5.0,8.0,-999,0.00,,,-99.99,,2013-05-14 10:43:00,
2013-05-14 05:52:00,58.0,58.0,-100.00,SSW,200,4.0,6.0,99,0.00,,,-99.99,,2013-05-14 10:52:00,
2013-05-14 06:02:00,58.0,58.0,-100.00,South,180,2.0,6.0,99,0.00,,,-99.99,,2013-05-14 11:02:00,
2013-05-14 06:11:00,57.0,57.0,-100.00,South,190,5.0,7.0,99,0.00,,,-99.99,,2013-05-14 11:11:00,
2013-05-14 06:22:00,57.0,57.0,-100.00,SSW,205,4.0,8.0,99,0.00,,,-99.99,,2013-05-14 11:22:00,
2013-05-14 06:32:00,58.0,-99.9,-100.00,South,185,4.0,8.0,-999,0.00,,,-99.99,,2013-05-14 11:32:00,
2013-05-14 06:43:00,57.0,57.0,-100.00,South,190,2.0,4.0,99,0.00,,,-99.99,,2013-05-14 11:43:00,
2013-05-14 06:52:00,58.0,58.0,-100.00,South,190,4.0,6.0,99,0.00,,,-99.99,,2013-05-14 11:52:00,
2013-05-14 07:02:00,60.0,60.0,-100.00,SSW,210,5.0,7.0,99,0.00,,,-99.99,,2013-05-14 12:02:00,
2013-05-14 07:12:00,60.0,-99.9,-100.00,SSW,195,5.0,9.0,-999,0.00,,,-99.99,,2013-05-14 12:12:00,
2013-05-14 07:21:00,61.0,61.0,-100.00,SSW,210,4.0,7.0,99,0.00,,,-99.99,,2013-05-14 12:21:00,
2013-05-14 07:32:00,62.0,61.0,-100.00,SW,220,6.0,8.0,98,0.00,,,-99.99,,2013-05-14 12:32:00,
2013-05-14 07:42:00,62.0,61.0,-100.00,SW,235,6.0,9.0,98,0.00,,,-99.99,,2013-05-14 12:42:00,
2013-05-14 07:51:00,63.0,62.0,-100.00,SW,230,6.0,7.0,96,0.00,,,-99.99,,2013-05-14 12:51:00,
2013-05-14 08:01:00,63.0,62.0,-100.00,SW,225,4.0,7.0,94,0.00,,,-99.99,,2013-05-14 13:01:00,
2013-05-14 08:11:00,65.0,62.0,-100.00,SW,215,4.0,9.0,91,0.00,,,-99.99,,2013-05-14 13:11:00,
2013-05-14 08:22:00,65.0,62.0,-100.00,SW,225,6.0,7.0,89,0.00,,,-99.99,,2013-05-14 13:22:00,
2013-05-14 08:32:00,66.0,62.0,-100.00,SW,230,7.0,9.0,86,0.00,,,-99.99,,2013-05-14 13:32:00,
2013-05-14 08:41:00,67.0,63.0,-100.00,SW,235,5.0,9.0,85,0.00,,,-99.99,,2013-05-14 13:41:00,
2013-05-14 08:52:00,68.0,63.0,-100.00,WSW,245,6.0,9.0,84,0.00,,,-99.99,,2013-05-14 13:52:00,
2013-05-14 09:01:00,69.0,63.0,-100.00,WSW,240,6.0,10.0,82,0.00,,,-99.99,,2013-05-14 14:01:00,
2013-05-14 09:11:00,70.0,63.0,-100.00,WSW,240,5.0,10.0,79,0.00,,,-99.99,,2013-05-14 14:11:00,
2013-05-14 09:22:00,71.0,64.0,-100.00,WSW,255,5.0,8.0,79,0.00,,,-99.99,,2013-05-14 14:22:00,
2013-05-14 09:31:00,72.0,64.0,-100.00,West,265,6.0,7.0,76,0.00,,,-99.99,,2013-05-14 14:31:00,
2013-05-14 09:41:00,73.0,63.0,-100.00,SW,220,6.0,11.0,71,0.00,,,-99.99,,2013-05-14 14:41:00,
2013-05-14 09:52:00,74.0,65.0,-100.00,SW,230,6.0,12.0,73,0.00,,,-99.99,,2013-05-14 14:52:00,
2013-05-14 10:01:00,76.0,65.0,-100.00,SW,215,6.0,9.0,70,0.00,,,-99.99,,2013-05-14 15:01:00,
2013-05-14 10:12:00,75.0,65.0,-100.00,SW,225,10.0,12.0,69,0.00,,,-99.99,,2013-05-14 15:12:00,
2013-05-14 10:21:00,77.0,66.0,-100.00,SSW,210,8.0,12.0,69,0.00,,,-99.99,,2013-05-14 15:21:00,
2013-05-14 10:33:00,78.0,65.0,-100.00,SW,230,6.0,12.0,64,0.00,,,-99.99,,2013-05-14 15:33:00,
2013-05-14 10:43:00,80.0,66.0,-100.00,SSW,205,8.0,10.0,63,0.00,,,-99.99,,2013-05-14 15:43:00,
2013-05-14 10:53:00,80.0,65.0,-100.00,SSW,210,6.0,10.0,61,0.00,,,-99.99,,2013-05-14 15:53:00,
2013-05-14 11:02:00,81.0,67.0,-100.00,SW,215,4.0,9.0,62,0.00,,,-99.99,,2013-05-14 16:02:00,
2013-05-14 11:12:00,82.0,68.0,-100.00,SW,225,6.0,9.0,64,0.00,,,-99.99,,2013-05-14 16:12:00,
2013-05-14 11:23:00,83.0,67.0,-100.00,South,185,5.0,9.0,57,0.00,,,-99.99,,2013-05-14 16:23:00,
2013-05-14 11:33:00,84.0,67.0,-100.00,SSW,195,6.0,11.0,55,0.00,,,-99.99,,2013-05-14 16:33:00,
2013-05-14 11:43:00,85.0,68.0,-100.00,SSW,210,7.0,11.0,57,0.00,,,-99.99,,2013-05-14 16:43:00,
2013-05-14 11:54:00,85.0,66.0,-100.00,South,180,8.0,14.0,53,0.00,,,-99.99,,2013-05-14 16:54:00,
2013-05-14 12:03:00,86.0,69.0,-100.00,SSW,195,7.0,12.0,56,0.00,,,-99.99,,2013-05-14 17:03:00,
2013-05-14 12:13:00,87.0,66.0,-100.00,South,170,9.0,14.0,50,0.00,,,-99.99,,2013-05-14 17:13:00,
2013-05-14 12:24:00,88.0,65.0,-100.00,South,175,7.0,16.0,47,0.00,,,-99.99,,2013-05-14 17:24:00,
2013-05-14 12:32:00,88.0,66.0,-100.00,SSE,165,12.0,17.0,48,0.00,,,-99.99,,2013-05-14 17:32:00,
2013-05-14 12:43:00,88.0,66.0,-100.00,SSE,165,12.0,17.0,48,0.00,,,-99.99,,2013-05-14 17:43:00,
2013-05-14 12:52:00,90.0,63.0,-100.00,South,185,13.0,18.0,42,0.00,,,-99.99,,2013-05-14 17:52:00,
2013-05-14 13:02:00,90.0,63.0,-100.00,South,185,13.0,18.0,42,0.00,,,-99.99,,2013-05-14 18:02:00,
2013-05-14 13:12:00,91.0,62.0,-100.00,South,170,11.0,17.0,38,0.00,,,-99.99,,2013-05-14 18:12:00,
2013-05-14 13:22:00,91.0,65.0,-100.00,South,185,10.0,18.0,41,0.00,,,-99.99,,2013-05-14 18:22:00,
2013-05-14 13:32:00,92.0,61.0,-100.00,South,190,12.0,17.0,35,0.00,,,-99.99,,2013-05-14 18:32:00,
2013-05-14 13:42:00,92.0,63.0,-100.00,South,180,11.0,20.0,38,0.00,,,-99.99,,2013-05-14 18:42:00,
2013-05-14 13:52:00,93.0,64.0,-100.00,SSW,195,10.0,16.0,38,0.00,,,-99.99,,2013-05-14 18:52:00,
2013-05-14 14:01:00,93.0,63.0,-100.00,South,190,12.0,20.0,37,0.00,,,-99.99,,2013-05-14 19:01:00,
2013-05-14 14:12:00,93.0,63.0,-100.00,SSW,200,11.0,21.0,37,0.00,,,-99.99,,2013-05-14 19:12:00,
2013-05-14 14:22:00,94.0,62.0,-100.00,SSW,195,14.0,20.0,35,0.00,,,-99.99,,2013-05-14 19:22:00,
2013-05-14 14:32:00,94.0,61.0,-100.00,South,180,17.0,24.0,33,0.00,,,-99.99,,2013-05-14 19:32:00,
2013-05-14 14:42:00,94.0,65.0,-100.00,SSW,200,12.0,25.0,38,0.00,,,-99.99,,2013-05-14 19:42:00,
2013-05-14 14:52:00,95.0,65.0,-100.00,SSW,200,12.0,20.0,37,0.00,,,-99.99,,2013-05-14 19:52:00,
2013-05-14 15:02:00,95.0,64.0,-100.00,SW,220,16.0,26.0,35,0.00,,,-99.99,,2013-05-14 20:02:00,
2013-05-14 15:11:00,94.0,65.0,-100.00,SSW,210,16.0,25.0,37,0.00,,,-99.99,,2013-05-14 20:11:00,
2013-05-14 15:23:00,95.0,65.0,-100.00,South,190,14.0,26.0,37,0.00,,,-99.99,,2013-05-14 20:23:00,
2013-05-14 15:32:00,95.0,66.0,-100.00,SSW,205,12.0,26.0,38,0.00,,,-99.99,,2013-05-14 20:32:00,
2013-05-14 15:44:00,94.0,67.0,-100.00,South,190,12.0,23.0,40,0.00,,,-99.99,,2013-05-14 20:44:00,
2013-05-14 15:52:00,94.0,68.0,-100.00,SSW,195,14.0,24.0,42,0.00,,,-99.99,,2013-05-14 20:52:00,
2013-05-14 16:03:00,94.0,69.0,-100.00,South,170,11.0,22.0,44,0.00,,,-99.99,,2013-05-14 21:03:00,
2013-05-14 16:12:00,95.0,68.0,-100.00,SSW,200,15.0,22.0,42,0.00,,,-99.99,,2013-05-14 21:12:00,
2013-05-14 16:23:00,95.0,70.0,-100.00,South,190,12.0,21.0,45,0.00,,,-99.99,,2013-05-14 21:23:00,
2013-05-14 16:33:00,94.0,69.0,-100.00,SSW,200,14.0,24.0,44,0.00,,,-99.99,,2013-05-14 21:33:00,
2013-05-14 16:43:00,94.0,68.0,-100.00,SSW,210,17.0,27.0,43,0.00,,,-99.99,,2013-05-14 21:43:00,
2013-05-14 16:52:00,94.0,68.0,-100.00,SSW,210,17.0,27.0,43,0.00,,,-99.99,,2013-05-14 21:52:00,
2013-05-14 17:03:00,94.0,67.0,-100.00,SSW,210,21.0,32.0,41,0.00,,,-99.99,,2013-05-14 22:03:00,
2013-05-14 17:13:00,94.0,68.0,-100.00,SSW,205,12.0,26.0,42,0.00,,,-99.99,,2013-05-14 22:13:00,
2013-05-14 17:24:00,94.0,69.0,-100.00,SSW,210,17.0,26.0,44,0.00,,,-99.99,,2013-05-14 22:24:00,
2013-05-14 17:34:00,93.0,68.0,-100.00,SSW,210,20.0,28.0,44,0.00,,,-99.99,,2013-05-14 22:34:00,
2013-05-14 17:45:00,93.0,67.0,-100.00,SSW,210,19.0,26.0,42,0.00,,,-99.99,,2013-05-14 22:45:00,
2013-05-14 17:54:00,93.0,69.0,-100.00,SSW,200,12.0,24.0,45,0.00,,,-99.99,,2013-05-14 22:54:00,
2013-05-14 18:03:00,93.0,67.0,-100.00,SSW,205,19.0,29.0,43,0.00,,,-99.99,,2013-05-14 23:03:00,
2013-05-14 18:12:00,92.0,67.0,-100.00,SSW,210,20.0,26.0,43,0.00,,,-99.99,,2013-05-14 23:12:00,
2013-05-14 18:21:00,92.0,67.0,-100.00,SW,220,16.0,23.0,44,0.00,,,-99.99,,2013-05-14 23:21:00,
2013-05-14 18:32:00,92.0,66.0,-100.00,SSW,205,17.0,24.0,42,0.00,,,-99.99,,2013-05-14 23:32:00,
2013-05-14 18:44:00,92.0,66.0,-100.00,SW,215,17.0,29.0,43,0.00,,,-99.99,,2013-05-14 23:44:00,
2013-05-14 18:52:00,91.0,67.0,-100.00,SW,215,18.0,28.0,45,0.00,,,-99.99,,2013-05-14 23:52:00,
2013-05-14 19:02:00,90.0,66.0,-100.00,SSW,195,19.0,25.0,45,0.00,,,-99.99,,2013-05-15 00:02:00,
2013-05-14 19:11:00,90.0,66.0,-100.00,SW,215,17.0,24.0,45,0.00,,,-99.99,,2013-05-15 00:11:00,
2013-05-14 19:21:00,88.0,65.0,-100.00,SW,215,19.0,28.0,45,0.00,,,-99.99,,2013-05-15 00:21:00,
2013-05-14 19:32:00,87.0,66.0,-100.00,SSW,210,11.0,26.0,49,0.00,,,-99.99,,2013-05-15 00:32:00,
2013-05-14 19:42:00,87.0,65.0,-100.00,SW,225,17.0,22.0,48,0.00,,,-99.99,,2013-05-15 00:42:00,
2013-05-14 19:51:00,87.0,65.0,-100.00,SW,220,16.0,24.0,48,0.00,,,-99.99,,2013-05-15 00:51:00,
2013-05-14 20:01:00,86.0,65.0,-100.00,SW,215,16.0,21.0,48,0.00,,,-99.99,,2013-05-15 01:01:00,
2013-05-14 20:11:00,86.0,65.0,-100.00,SW,220,14.0,24.0,49,0.00,,,-99.99,,2013-05-15 01:11:00,
2013-05-14 20:21:00,85.0,64.0,-100.00,SW,215,13.0,18.0,49,0.00,,,-99.99,,2013-05-15 01:21:00,
2013-05-14 20:31:00,85.0,64.0,-100.00,SSW,210,10.0,17.0,50,0.00,,,-99.99,,2013-05-15 01:31:00,
2013-05-14 20:42:00,84.0,64.0,-100.00,SW,215,10.0,16.0,51,0.00,,,-99.99,,2013-05-15 01:42:00,
2013-05-14 20:52:00,83.0,64.0,-100.00,SSW,210,10.0,14.0,53,0.00,,,-99.99,,2013-05-15 01:52:00,
2013-05-14 21:02:00,83.0,64.0,-100.00,SW,215,10.0,17.0,52,0.00,,,-99.99,,2013-05-15 02:02:00,
2013-05-14 21:11:00,83.0,64.0,-100.00,SSW,210,11.0,16.0,52,0.00,,,-99.99,,2013-05-15 02:11:00,
2013-05-14 21:21:00,82.0,63.0,-100.00,SSW,200,10.0,16.0,52,0.00,,,-99.99,,2013-05-15 02:21:00,
2013-05-14 21:31:00,82.0,63.0,-100.00,SW,215,12.0,20.0,52,0.00,,,-99.99,,2013-05-15 02:31:00,
2013-05-14 21:42:00,81.0,62.0,-100.00,SSW,210,11.0,15.0,52,0.00,,,-99.99,,2013-05-15 02:42:00,
2013-05-14 21:52:00,81.0,62.0,-100.00,SSW,210,12.0,18.0,52,0.00,,,-99.99,,2013-05-15 02:52:00,
2013-05-14 22:01:00,81.0,62.0,-100.00,SW,215,12.0,19.0,52,0.00,,,-99.99,,2013-05-15 03:01:00,
2013-05-14 22:12:00,81.0,62.0,-100.00,SSW,210,12.0,19.0,51,0.00,,,-99.99,,2013-05-15 03:12:00,
2013-05-14 22:22:00,81.0,62.0,-100.00,SW,220,12.0,20.0,51,0.00,,,-99.99,,2013-05-15 03:22:00,
2013-05-14 22:33:00,81.0,61.0,-100.00,SW,215,14.0,20.0,50,0.00,,,-99.99,,2013-05-15 03:33:00,
2013-05-14 22:44:00,81.0,61.0,-100.00,SW,220,14.0,20.0,51,0.00,,,-99.99,,2013-05-15 03:44:00,
2013-05-14 22:54:00,80.0,61.0,-100.00,SW,220,17.0,25.0,51,0.00,,,-99.99,,2013-05-15 03:54:00,
2013-05-14 23:03:00,80.0,60.0,-100.00,SW,225,17.0,23.0,50,0.00,,,-99.99,,2013-05-15 04:03:00,
2013-05-14 23:12:00,81.0,60.0,-100.00,SW,235,21.0,29.0,47,0.00,,,-99.99,,2013-05-15 04:12:00,
2013-05-14 23:24:00,81.0,59.0,-100.00,WSW,240,17.0,31.0,47,0.00,,,-99.99,,2013-05-15 04:24:00,
2013-05-14 23:33:00,81.0,59.0,-100.00,WSW,240,20.0,27.0,48,0.00,,,-99.99,,2013-05-15 04:33:00,
2013-05-14 23:42:00,80.0,60.0,-100.00,WSW,250,17.0,29.0,50,0.00,,,-99.99,,2013-05-15 04:42:00,
2013-05-14 23:52:00,79.0,59.0,-100.00,WSW,255,15.0,24.0,51,0.00,,,-99.99,,2013-05-15 04:52:00,